PRÉPARATION DES VOLS

Pour bien préparer vos sorties, pensez à télécharger la fiche technique de votre avion, la check-list, le manuel de vol, le devis de centrage ou encore un modèle de Log de Nav.

 

Type : 2 places train classique

Moteur : Continental 90 cv.

Performances : 140 km/h

Type : 2/3 places en instruction & entraînement (devis de centrage).

Moteur : Lycoming 4 cyl. à plat, 108 cv.

Performances : 180 km/h

Autonomie : 4 h soit environ 720 km franchissables.

Avionique : 1 radio com Bendix/King, 1 VOR, 1 transpondeur.

Type : 3/4 places instruction, entraînement, voyage.

Moteur : Lycoming 4 cyl. à plat, 120 cv.

Performances : 190 km/h

Autonomie : 4 h soit environ 760 km franchissables.

Avionique : 1 radio com Bendix/King, 1 VOR, 1 transpondeur mode S, intercom 2 voies type.

 

Type : 3/4 places instruction, entraînement, voyage.

Moteur : Lycoming 4 cyl. à plat, 120 cv.

Performances : 190 km/h

Autonomie : 4 h soit environ 760 km franchissables.

Avionique : 1 radio com Bendix/King, 1 VOR, 1 transpondeur mode S, intercom 2 voies type.

 

Type : 4 places, pour entraînement et voyage.

Moteur : Robin Lycoming 4 cyl. à plat, 160 cv.

Performances : 206 km/h

Autonomie : 2 h 50 min soit environ 580 km de distance franchissable.

Avionique : 1 radio com Bendix/King, 1 VOR, 1 transpondeur mode S, intercom 4 voies.

 

 

 

 

 

 

 

Type : 4 places, avion de voyage

Moteur : Lycoming 4 cylindres à plat, 180CV

Vitesse de croisière : 225 km/h

Autonomie : 4h

Avionique : Garmin GNS 430, 1 VOR, 1 transpondeur mode S

 

Automne 2023…

Télécharger l’aide mémoire de la radio GTR 225A

Télécharger l’aide mémoire de la radio GNC 255A

Télécharger le dossier de préparation de vol

Télécharger un log de nav

Log 1

Cliquez sur le formulaire pour le télécharger

*Notice d’utilisation*

Ce log de Nav permet d’avoir une partie Navigation et une partie déroutement. Il comprends également une gestion du carburant.
Il tient aussi bien sur une planchette A4 ou A5 en pliant la feuille en deux et en découpant la partie pointillé. A la suite, il suffit de plier chaque bords découpés.
Les parties Nav/Déroutement peuvent ainsi être disponible en rabattant la feuille.
Bons vols à tous !
Guillaume

Log 2

Cliquez sur le formulaire pour le télécharger

Log_1*Notice d’utilisation*

Ce Log de Nav a été optimisé pour rendre les calculs automatiques sous Excel. Indiquez simplement vos points de report, les altitudes et les distances en NM. La feuille calcule alors le temps sans vent pour chaque étape et donne le total, qu’elle convertit en heure-minutes. Elle calcule également la distance totale et la convertit en kilomètres. Enfin, elle affiche le résultat du devis carburant, calculé automatiquement par le 2ème feuillet. Vous pouvez également inscrire préalablement les fréquences Radio et Nav. Les autres cases sont à remplir pendant le vol : date, top départ, heure estimée (grisée), heure réelle,horamètre, Atis…
Bons vols à tous !
Guillaume

Log 3

Cliquez sur le formulaire pour le télécharger

Log_2

Log 4

 Cliquez sur le formulaire pour le télécharger

Log_3

L’alphabet Morse et l’alphabet international

Alphabet International

Nos coordonnées

Aéroclub Renault

Aérodrome de Chavenay

78450 Chavenay-Villepreux

telephone

Atis

Télécharger la VAC LFPX

 

Télécharger le calcul de centrage

Télécharger la feuille ATIS

Télécharger le mémo VFR 2020-2021

 

Télécharger le formulaire de prorogation SEP

METARS / TAF de Toussus, Evreux, Orly et Roissy

Toussus

LFPN 020930Z AUTO 18009KT 8000 RA BKN010/// OVC016/// ///TCU 06/06 Q0997 TEMPO 18015G25KT 4500 RA

TAF TAF AMD LFPN 132015Z 1320/1420 17005KT 5000 BKN025 TEMPO 1320/1324 2000 BR OVC008 PROB30 TEMPO 1320/1324 0800 FG OVC002

Evreux

LFOE 020900Z AUTO 16018KT 9999 FEW011 BKN086 OVC110 06/05 Q0995

TAF TAF LFOE 020742Z 0207/0303 CNL

Orly

LFPO 020900Z 20007KT 160V220 8000 -RA SCT010 BKN013 07/06 Q0997 TEMPO 4000 -SHRA BKN025TCU

TAF LFPO 020500Z 0206/0312 18008KT CAVOK TEMPO 0209/0303 4000 -SHRA BKN025TCU PROB30 TEMPO 0213/0222 18015G30KT 2000 +SHRA SCT010 SCT015CB PROB40 TEMPO 0222/0303 BKN010 PROB30 TEMPO 0300/0303 BKN007 BECMG 0303/0305 30005KT BKN014

Roissy

LFPG 020900Z 16013KT 140V200 9999 -RA BKN010 BKN017 07/06 Q0998 NOSIG

TAF AMD TAF AMD LFPG 020913Z 0209/0312 17010KT 7000 BKN013 TX10/0212Z TN05/0306Z TEMPO 0209/0216 16015G25KT BKN007 PROB40 TEMPO 0212/0221 4000 -SHRA BKN030TCU PROB30 TEMPO 0215/0221 2000 TSRA BKN025CB PROB40 TEMPO 0300/0306 BKN013 PROB30 TEMPO 0300/0306 BKN006

Abonnez-vous à notre Newsletter !

*Champs obligatoires

En vous abonnant, vous acceptez de recevoir des e-mails d'information de l'Aéroclub Renault.

Vous pourrez vous désinscrire à tout moment.

Voir notre page de politique de confidentialité

Share This